Weather History for Fitchburg, MA

Change the Weather History Date:

Saturday, November 30, 2013

  Actual Average (KORH) Record (KORH)
Temperature  
Mean Temperature 20 °F 35 °F  
Max Temperature 30 °F 42 °F 65 °F (1962)
Min Temperature 10 °F 28 °F 6 °F (1929)
Degree Days  
Heating Degree Days 45 30  
Month to date heating degree days 740  
Since 1 July heating degree days 1402  
Cooling Degree Days 0 0  
Month to date cooling degree days 0  
Year to date cooling degree days 471  
Moisture  
Dew Point 11 °F    
Average Humidity 60    
Maximum Humidity 84    
Minimum Humidity 41    
Precipitation  
Precipitation 0.00 in 0.14 in 1.52 in (1944)
Month to date precipitation 4.28  
Year to date precipitation 44.25  
Sea Level Pressure  
Sea Level Pressure 30.68 in    
Wind  
Wind Speed 3 mph (SE)    
Max Wind Speed 8 mph    
Max Gust Speed -    
Visibility 10 miles    
Events      
T = Trace of Precipitation, MM = Missing Value Source: NWS Daily Summary

Daily Weather History Graph

Daily Weather History Graph

Search for Another Location

Airport:

Trip Planner

Search our weather history database for the weather conditions in past years. The results will help you decide how hot, cold, wet, or windy it might be!

Date:

Astronomy

Nov. 30, 2013 Rise Set
Actual Time 6:56 AM EST 4:15 PM EST
Civil Twilight 6:24 AM EST 4:46 PM EST
Nautical Twilight 5:49 AM EST 5:21 PM EST
Astronomical Twilight 5:15 AM EST 5:55 PM EST
Moon 4:01 AM EST (11/30) 2:39 PM EST (11/30)
Length of Visible Light 10h 21m
Length of Day
9h 18m
Waning Crescent, 7% of the Moon is Illuminated
Nov 30
Waning Crescent
Dec 2
New
Dec 9
First Quarter
Dec 17
Full
Dec 25
Last Quarter

Hourly Weather History & Observations

Time (EST) Temp. Windchill Dew Point Humidity Pressure Visibility Wind Dir Wind Speed Gust Speed Precip Events Conditions
12:52 AM 12.0 °F 5.9 °F 5.0 °F 73% 30.76 in 10.0 mi North 3.5 mph - N/A   Clear
1:52 AM 12.9 °F 6.9 °F 6.1 °F 74% 30.77 in 10.0 mi NNW 3.5 mph - N/A   Clear
2:52 AM 14.0 °F 8.2 °F 6.1 °F 71% 30.78 in 10.0 mi North 3.5 mph - N/A   Clear
3:52 AM 12.9 °F 6.9 °F 7.0 °F 77% 30.78 in 10.0 mi NNW 3.5 mph - N/A   Clear
4:52 AM 12.9 °F - 7.0 °F 77% 30.79 in 10.0 mi Calm Calm - N/A   Clear
5:52 AM 10.9 °F - 6.1 °F 81% 30.80 in 10.0 mi Calm Calm - N/A   Clear
6:52 AM 10.0 °F - 6.1 °F 84% 30.81 in 10.0 mi Calm Calm - N/A   Clear
7:52 AM 14.0 °F 8.2 °F 8.1 °F 77% 30.82 in 10.0 mi NNW 3.5 mph - N/A   Clear
8:52 AM 19.9 °F 13.4 °F 9.0 °F 62% 30.82 in 10.0 mi NNW 4.6 mph - N/A   Clear
9:52 AM 25.0 °F - 6.1 °F 45% 30.80 in 10.0 mi Calm Calm - N/A   Clear
10:52 AM 26.1 °F - 5.0 °F 41% 30.77 in 10.0 mi Calm Calm - N/A   Clear
11:52 AM 28.0 °F - 7.0 °F 41% 30.74 in 10.0 mi Calm Calm - N/A   Clear
12:52 PM 30.0 °F 23.2 °F 10.0 °F 43% 30.70 in 10.0 mi South 6.9 mph - N/A   Clear
1:52 PM 30.9 °F 23.5 °F 10.9 °F 43% 30.67 in 10.0 mi SSE 8.1 mph - N/A   Clear
2:52 PM 30.9 °F 24.3 °F 12.9 °F 47% 30.64 in 10.0 mi South 6.9 mph - N/A   Clear
3:52 PM 30.0 °F 24.1 °F 12.9 °F 49% 30.63 in 10.0 mi SSE 5.8 mph - N/A   Clear
4:52 PM 30.0 °F - 12.9 °F 49% 30.61 in 10.0 mi Calm Calm - N/A   Mostly Cloudy
5:52 PM 30.0 °F 26.5 °F 15.1 °F 54% 30.59 in 10.0 mi SSE 3.5 mph - N/A   Mostly Cloudy
6:52 PM 28.9 °F 25.2 °F 14.0 °F 54% 30.58 in 10.0 mi SE 3.5 mph - N/A   Mostly Cloudy
7:52 PM 30.0 °F - 14.0 °F 51% 30.56 in 10.0 mi Calm Calm - N/A   Partly Cloudy
8:52 PM 28.0 °F - 18.0 °F 66% 30.53 in 10.0 mi Calm Calm - N/A   Mostly Cloudy
9:52 PM 28.9 °F - 17.1 °F 61% 30.51 in 10.0 mi Calm Calm - N/A   Overcast
10:52 PM 28.9 °F 25.2 °F 17.1 °F 61% 30.48 in 10.0 mi SSE 3.5 mph - N/A   Overcast
11:52 PM 30.0 °F 26.5 °F 19.0 °F 64% 30.44 in 10.0 mi SE 3.5 mph - N/A   Overcast